Glasgow, MT

1:14 PM MST on January 22, 2018 (GMT -0700)
Wokal-Glasgow International

Weather History for KGGW - May, 2014

Change the Weather History Date:

Wednesday, May 7, 2014

  Actual Average Record
Temperature  
Mean Temperature 41 °F 52 °F  
Max Temperature 52 °F 65 °F 93 °F (1992)
Min Temperature 30 °F 39 °F 21 °F (1929)
Degree Days  
Heating Degree Days 24 13  
Month to date heating degree days 135 98  
Since 1 July heating degree days 8604 8105  
Cooling Degree Days 0 0  
Month to date cooling degree days 0 0  
Year to date cooling degree days 0 1  
Moisture  
Dew Point 23 °F    
Average Humidity 58    
Maximum Humidity 89    
Minimum Humidity 26    
Precipitation  
Precipitation 0.00 in 0.05 in 0.54 in (1981)
Month to date precipitation 0.38 0.32  
Year to date precipitation 2.37 2.22  
Snow  
Snow 0.00 in 0.10 in 2.10 in (2002)
Month to date snowfall T 0.4  
Since 1 July snowfall 30.4 34.0  
Snow Depth 0.00 in    
Sea Level Pressure  
Sea Level Pressure 30.02 in    
Wind  
Wind Speed 9 mph (North)    
Max Wind Speed 16 mph    
Max Gust Speed 20 mph    
Visibility 10 miles    
Events      
T = Trace of Precipitation, MM = Missing Value Source: NWS Daily Summary

Daily Weather History Graph

Daily Weather History Graph

Search for Another Location

Airport or City:

Trip Planner

Search our weather history database for the weather conditions in past years. The results will help you decide how hot, cold, wet, or windy it might be!

Date:

Astronomy

May. 07, 2014 Rise Set
Actual Time 5:38 AM MDT 8:28 PM MDT
Civil Twilight 5:02 AM MDT 9:04 PM MDT
Nautical Twilight 4:16 AM MDT 9:51 PM MDT
Astronomical Twilight 3:21 AM MDT 10:46 PM MDT
Moon 1:04 PM MDT (5/7) 2:12 AM MDT (5/7)
Length of Visible Light 16h 02m
Length of Day
14h 50m
First Quarter, 56% of the Moon is Illuminated
May 7
First Quarter
May 14
Full
May 21
Last Quarter
May 28
New
Jun 5
First Quarter

Hourly Weather History & Observations

Time (MDT) Temp. Windchill Dew Point Humidity Pressure Visibility Wind Dir Wind Speed Gust Speed Precip Events Conditions
12:53 AM 39.9 °F 32.9 °F 33.1 °F 77% 29.99 in 10.0 mi NNW 11.5 mph - N/A   Overcast
1:53 AM 39.0 °F 31.0 °F 33.1 °F 79% 30.00 in 10.0 mi NW 13.8 mph - N/A   Overcast
2:53 AM 35.6 °F 28.0 °F 30.2 °F 81% 29.95 in 10.0 mi NNW 10.4 mph - N/A   Partly Cloudy
3:53 AM 34.0 °F 27.2 °F 30.0 °F 85% 30.01 in 10.0 mi NNW 8.1 mph - N/A   Clear
4:53 AM 33.1 °F 25.5 °F 28.9 °F 85% 30.01 in 10.0 mi North 9.2 mph - N/A   Clear
5:53 AM 30.2 °F 22.6 °F 26.6 °F 86% 29.98 in 10.0 mi NNW 8.1 mph - N/A   Clear
7:53 AM 37.9 °F 30.5 °F 25.0 °F 60% 30.05 in 10.0 mi NNW 11.5 mph - N/A   Clear
8:53 AM 42.1 °F 34.9 °F 21.9 °F 45% 30.05 in 10.0 mi North 13.8 mph 19.6 mph N/A   Clear
9:53 AM 43.0 °F 35.7 °F 19.9 °F 40% 30.05 in 10.0 mi NNW 15.0 mph - N/A   Clear
10:53 AM 44.6 °F 38.4 °F 21.2 °F 39% 30.01 in 10.0 mi North 12.7 mph 18.4 mph N/A   Clear
11:53 AM 45.0 °F 39.7 °F 19.9 °F 37% 30.06 in 10.0 mi NNE 10.4 mph - N/A   Clear
12:53 PM 46.9 °F - 19.0 °F 33% 30.05 in 10.0 mi Variable 4.6 mph - N/A   Clear
1:53 PM 46.9 °F - 18.0 °F 32% 30.03 in 10.0 mi Variable 3.5 mph - N/A   Clear
2:53 PM 50.0 °F - 18.0 °F 28% 30.01 in 10.0 mi NNW 10.4 mph 17.3 mph N/A   Clear
3:53 PM 51.8 °F - 17.6 °F 26% 29.95 in 10.0 mi Variable 4.6 mph - N/A   Clear
4:53 PM 50.0 °F - 17.1 °F 27% 30.00 in 10.0 mi ESE 4.6 mph - N/A   Clear
5:53 PM 50.0 °F - 18.0 °F 28% 30.01 in 10.0 mi Variable 4.6 mph - N/A   Clear
6:53 PM 50.0 °F - 21.9 °F 33% 30.01 in 10.0 mi NW 8.1 mph - N/A   Clear
7:53 PM 46.9 °F - 21.0 °F 36% 30.00 in 10.0 mi NNW 4.6 mph - N/A   Clear
8:53 PM 45.0 °F 42.6 °F 21.0 °F 39% 30.01 in 10.0 mi North 4.6 mph - N/A   Clear
9:53 PM 37.0 °F 30.4 °F 25.0 °F 62% 30.03 in 10.0 mi NE 9.2 mph - N/A   Clear
10:53 PM 35.1 °F 27.4 °F 23.0 °F 61% 30.05 in 10.0 mi NE 10.4 mph - N/A   Clear
11:53 PM 36.0 °F 28.0 °F 23.0 °F 59% 30.04 in 10.0 mi ENE 11.5 mph - N/A   Clear